Wind_Speed
14 14 14 14 14 14 14 14 14 13 13 12 12 12 12 12 11 11 10 9 9 9 8 8 8 8 7 7 7 7 7 7 7 6 5 5 4 4 4 4 3 3 3
15 15 15 16 16 15 15 15 15 15 15 14 13 13 14 14 13 12 11 10 10 10 9 9 8 8 8 9 8 7 7 8 7 7 6 5 5 5 4 4 4 4 3
16 17 17 17 17 17 16 16 16 15 15 15 15 14 15 15 15 14 13 12 11 11 11 10 9 9 9 9 9 9 8 8 8 7 7 6 6 6 5 5 5 4 4
17 18 18 18 19 19 18 18 17 17 17 17 16 16 16 16 16 15 15 14 14 13 12 12 11 11 11 10 10 10 10 9 9 9 8 8 7 7 6 6 6 6 5
19 20 20 20 20 20 20 20 19 19 19 18 18 17 17 17 18 17 16 16 15 15 14 13 13 12 12 12 11 11 12 11 11 10 10 10 9 8 8 7 7 7 7
22 22 21 21 22 22 22 22 21 21 21 20 20 19 19 18 18 19 19 18 17 17 16 15 15 14 14 14 13 13 13 13 12 12 12 11 11 10 10 9 8 9 8
24 24 23 23 23 23 23 23 23 23 23 22 22 21 21 21 20 20 20 20 20 18 17 17 17 16 15 15 15 15 15 15 14 14 14 13 13 12 11 11 10 10 10
26 26 25 25 25 25 24 25 25 24 24 24 23 23 22 22 22 22 22 22 22 21 20 19 19 18 17 17 17 17 16 16 16 16 15 15 15 15 14 13 12 12 12
28 27 27 28 27 27 27 26 26 26 26 25 25 25 24 24 24 24 24 24 23 23 23 22 20 20 20 20 19 19 19 18 18 18 17 17 16 16 16 15 14 14 14
30 29 29 30 30 29 29 28 28 28 28 28 27 27 27 26 26 26 26 26 25 25 25 25 24 23 22 22 22 21 21 20 20 19 19 19 18 17 17 17 17 16 16
31 31 31 31 31 31 31 31 30 30 30 30 29 29 28 29 28 28 28 28 28 27 27 27 26 26 25 23 24 23 23 23 22 21 21 21 21 20 20 19 19 19 18
33 33 33 33 33 33 33 33 32 32 32 31 31 31 30 30 30 30 30 30 30 30 29 29 29 28 27 27 26 25 25 25 25 24 24 23 23 23 22 22 22 22 21
35 34 34 34 34 34 34 35 35 34 34 33 33 33 33 32 32 32 32 31 31 31 31 30 30 30 29 29 28 28 28 27 27 27 26 26 25 25 25 25 24 24 24
37 37 36 36 36 36 36 37 37 37 36 35 35 35 35 34 34 34 34 34 33 33 33 33 32 32 31 31 30 30 31 30 30 29 29 29 28 28 28 27 27 27 26
38 39 38 38 38 38 39 39 39 38 38 38 37 37 37 36 36 36 36 36 35 35 35 36 35 35 33 33 32 32 32 33 33 32 31 31 31 30 30 30 30 30 29
40 40 40 40 40 41 41 41 41 40 40 40 39 39 38 38 38 38 38 38 38 37 37 37 37 36 36 35 35 35 34 35 35 34 34 33 33 33 33 33 32 32 32
41 41 42 42 42 42 42 42 42 42 42 41 41 41 41 40 40 40 40 39 39 39 39 38 38 38 38 38 37 37 37 37 37 36 36 36 36 36 36 35 35 35 34
42 43 43 43 43 43 43 43 43 43 43 43 43 42 42 42 42 42 41 40 40 41 40 40 39 39 40 40 40 40 40 39 39 39 39 39 39 39 39 38 38 37 36
43 43 43 44 44 44 45 44 44 44 44 45 44 43 43 43 42 42 42 42 42 42 42 41 41 41 41 41 42 42 42 42 42 42 43 42 42 42 42 41 41 40 39
43 43 44 44 44 44 46 46 46 46 45 45 45 45 44 44 44 44 44 43 43 43 43 43 43 43 43 43 44 44 44 44 45 44 45 45 45 45 44 43 43 43 42
44 44 45 46 46 46 47 48 48 48 47 47 47 47 46 46 46 46 45 45 45 44 45 44 45 44 45 45 45 46 46 47 46 46 47 46 46 46 46 45 45 45 45
43 44 45 46 47 47 47 48 49 48 48 49 49 49 49 48 48 48 48 47 47 46 46 47 47 46 47 47 47 47 47 48 48 48 49 49 48 48 48 48 47 47 47
42 42 44 45 46 47 47 48 49 49 49 49 49 50 50 49 49 49 49 49 48 48 48 48 48 49 49 48 49 49 49 49 49 49 50 51 50 50 50 50 50 49 49
42 43 44 45 46 46 47 48 49 50 50 50 50 50 51 51 52 51 51 50 49 50 50 49 49 50 50 50 50 50 50 50 50 50 51 51 52 52 53 53 52 52 50
42 42 43 44 45 46 47 48 49 49 50 50 50 51 51 52 52 52 52 51 51 51 51 51 50 50 51 51 51 51 51 51 51 51 51 51 53 54 54 54 54 54 53
41 42 43 43 44 45 46 47 48 49 50 50 50 51 52 53 53 53 53 52 53 53 53 52 52 52 52 51 52 52 52 52 52 52 51 51 52 53 55 56 56 55 54
Wind_Direction
246 245 244 241 241 239 240 239 239 239 241 242 245 242 238 238 238 237 236 238 241 241 236 233 231 231 229 226 223 216 214 210 209 209 204 200 197 193 190 187 181 173 166
248 248 247 245 244 243 242 241 241 241 241 241 244 245 240 240 241 240 240 241 242 243 242 240 239 236 233 228 227 226 222 217 216 217 214 211 206 206 205 200 197 195 192
250 249 249 248 246 244 244 244 243 242 242 242 242 244 242 239 239 240 240 241 243 245 245 245 243 239 237 232 230 230 230 228 225 222 221 218 215 213 213 217 211 209 210
250 250 251 249 247 246 246 245 244 244 244 243 243 244 244 242 239 241 242 242 244 245 246 247 247 243 242 240 236 235 235 235 230 229 228 226 223 222 223 227 227 223 222
251 251 252 252 250 248 247 246 244 243 243 244 244 244 246 246 242 243 244 244 245 245 245 246 245 246 244 242 241 239 237 237 237 236 237 232 229 229 231 234 234 231 231
252 252 252 252 252 250 249 247 246 244 244 245 245 245 245 247 247 247 246 247 247 247 247 247 245 245 245 243 242 242 241 238 239 240 240 237 234 233 234 235 235 234 235
252 252 253 252 251 251 250 248 246 246 246 246 246 246 247 247 247 248 248 248 248 248 249 250 247 246 247 246 244 244 243 241 241 242 242 242 240 238 238 238 238 236 236
253 252 252 252 251 250 250 250 248 247 247 247 247 247 248 248 248 249 249 249 249 249 249 249 248 247 248 248 247 245 244 245 244 243 244 245 245 242 241 240 240 240 240
253 253 252 252 252 252 251 250 249 248 247 247 247 248 249 249 249 249 250 250 251 250 250 250 250 249 249 248 248 248 246 246 247 246 245 246 247 244 243 243 242 242 244
253 253 252 252 253 252 252 250 250 249 248 248 248 248 249 249 249 249 251 251 251 252 252 252 253 251 251 249 248 249 249 248 248 249 248 247 247 247 245 245 244 244 246
253 253 253 252 252 252 251 251 250 250 250 249 248 248 249 249 249 250 252 253 253 253 254 254 254 253 252 251 251 249 249 249 248 250 250 249 249 249 247 248 248 247 248
253 252 252 252 252 252 252 251 251 250 251 251 249 248 249 249 250 251 252 253 254 254 254 255 254 254 253 253 253 251 249 249 249 250 251 251 251 252 250 250 250 249 250
253 252 252 252 252 252 251 251 251 251 251 251 251 249 249 249 250 251 252 253 253 254 255 255 255 255 254 254 254 253 252 250 250 250 251 252 252 253 253 251 251 251 251
254 253 252 251 252 252 251 250 250 251 250 251 251 250 249 248 249 251 252 253 254 254 255 256 257 256 256 256 255 254 254 253 252 251 251 252 253 253 254 253 252 252 252
254 253 252 252 252 252 251 251 250 250 251 251 251 251 249 249 249 250 252 253 253 254 256 257 258 257 257 257 256 255 255 253 253 253 253 253 253 254 254 253 252 253 253
254 254 253 253 252 252 252 251 250 250 250 251 250 249 250 249 250 250 252 253 253 254 255 257 258 259 258 257 257 256 256 254 254 253 254 254 254 254 254 254 253 253 253
254 254 253 252 252 252 252 251 251 251 251 250 250 249 250 251 251 251 252 253 254 256 257 257 258 258 258 257 257 256 256 256 255 255 255 255 255 255 254 254 252 252 252
253 254 253 252 252 252 252 251 251 251 250 250 250 250 251 252 252 252 252 253 255 256 256 257 258 258 257 256 256 256 256 256 256 256 257 256 256 256 256 255 253 252 252
253 253 253 252 252 252 252 251 251 251 251 250 251 251 252 252 252 253 253 254 255 256 256 256 256 257 257 257 256 257 257 258 258 257 257 257 256 256 256 255 254 253 252
253 252 252 252 252 251 251 251 251 250 251 251 251 251 251 252 253 253 253 255 255 255 256 256 256 257 258 258 258 258 258 259 259 258 258 257 256 256 255 254 254 253 253
253 252 253 253 253 252 252 251 250 250 250 250 251 251 251 252 253 253 254 255 256 256 256 257 257 258 259 260 260 259 258 258 259 258 258 257 256 256 255 254 253 252 253
255 253 253 253 253 253 252 252 252 251 251 251 252 252 252 253 253 254 254 256 256 257 258 258 259 259 260 260 261 260 259 259 258 258 258 258 257 256 255 254 254 253 253
257 255 254 253 253 253 253 252 252 252 252 253 252 252 253 252 253 254 255 257 257 258 259 259 259 260 260 261 262 262 260 259 259 258 258 258 257 256 255 254 254 252 252
258 256 254 254 254 253 253 253 253 253 253 254 254 254 253 254 254 254 256 257 258 259 259 259 260 261 261 261 262 262 261 260 260 258 257 258 257 256 255 255 254 252 252
259 257 255 255 255 254 254 254 254 254 254 255 255 255 254 255 255 254 255 256 257 258 259 260 262 262 262 262 261 261 260 261 261 260 259 258 257 256 255 254 254 253 251
258 257 256 255 255 255 255 255 255 256 256 256 256 256 256 256 257 256 255 256 257 258 259 260 261 262 262 262 262 261 260 260 261 261 261 260 257 255 254 254 254 252 250
Height
5837 5838 5838 5838 5839 5839 5840 5841 5841 5842 5843 5844 5844 5845 5846 5846 5847 5847 5848 5848 5848 5849 5849 5849 5850 5850 5850 5850 5851 5851 5851 5852 5852 5853 5853 5853 5853 5853 5853 5854 5854 5854 5854
5835 5835 5836 5836 5837 5837 5838 5839 5839 5840 5841 5841 5842 5843 5844 5844 5845 5845 5846 5846 5847 5847 5847 5848 5848 5848 5849 5849 5850 5850 5850 5851 5851 5852 5852 5852 5853 5853 5853 5853 5853 5853 5854
5832 5832 5833 5833 5834 5835 5835 5836 5837 5838 5838 5839 5840 5840 5841 5842 5843 5843 5844 5845 5845 5846 5846 5846 5847 5847 5847 5848 5849 5849 5849 5850 5850 5851 5851 5852 5852 5852 5852 5853 5853 5853 5853
5829 5829 5829 5830 5831 5831 5832 5833 5834 5835 5836 5836 5837 5838 5839 5839 5840 5841 5842 5843 5843 5844 5844 5845 5845 5846 5846 5846 5847 5848 5848 5849 5849 5850 5850 5850 5851 5851 5851 5852 5852 5852 5852
5825 5825 5826 5827 5827 5828 5829 5830 5830 5831 5833 5834 5834 5835 5836 5837 5837 5838 5839 5840 5841 5841 5842 5842 5843 5844 5844 5845 5845 5846 5846 5847 5847 5848 5848 5849 5850 5850 5850 5851 5851 5851 5851
5821 5821 5822 5823 5823 5824 5825 5826 5827 5828 5829 5830 5831 5832 5833 5834 5834 5835 5837 5837 5838 5839 5839 5840 5841 5841 5842 5843 5843 5844 5844 5845 5845 5846 5847 5847 5848 5848 5849 5849 5849 5850 5850
5816 5817 5817 5818 5819 5820 5821 5821 5823 5824 5825 5826 5827 5828 5829 5830 5831 5832 5833 5834 5835 5836 5836 5837 5838 5839 5839 5840 5841 5841 5842 5843 5843 5844 5845 5845 5846 5846 5847 5847 5848 5848 5849
5811 5811 5812 5813 5814 5815 5816 5817 5818 5819 5820 5821 5823 5824 5825 5826 5827 5828 5829 5830 5831 5832 5833 5834 5834 5835 5836 5837 5837 5838 5839 5840 5841 5841 5842 5843 5843 5844 5844 5845 5846 5846 5847
5805 5806 5806 5807 5809 5810 5811 5812 5813 5814 5815 5816 5818 5819 5820 5821 5822 5823 5825 5826 5827 5828 5829 5830 5831 5831 5832 5833 5834 5835 5836 5837 5838 5838 5839 5840 5840 5841 5842 5842 5843 5844 5844
5798 5799 5800 5801 5803 5804 5805 5806 5807 5808 5809 5811 5812 5814 5815 5816 5817 5819 5820 5821 5822 5823 5824 5825 5826 5827 5828 5829 5830 5831 5832 5833 5834 5835 5835 5836 5837 5837 5838 5839 5840 5841 5841
5791 5792 5794 5795 5796 5797 5798 5800 5801 5802 5803 5805 5806 5808 5809 5810 5812 5813 5814 5815 5816 5817 5819 5820 5821 5822 5823 5824 5825 5826 5827 5828 5830 5831 5831 5832 5833 5834 5834 5835 5836 5837 5838
5784 5785 5786 5787 5788 5789 5791 5792 5794 5795 5797 5798 5800 5801 5802 5804 5805 5807 5808 5809 5811 5812 5813 5814 5815 5816 5817 5818 5819 5820 5821 5823 5824 5826 5827 5828 5828 5829 5830 5831 5832 5833 5834
5776 5777 5778 5779 5781 5782 5783 5785 5786 5788 5789 5791 5792 5794 5795 5797 5798 5800 5801 5803 5804 5805 5806 5808 5809 5810 5811 5812 5813 5814 5815 5817 5818 5820 5821 5822 5823 5824 5825 5826 5827 5828 5829
5767 5768 5769 5771 5772 5773 5775 5776 5778 5780 5781 5783 5784 5786 5787 5789 5791 5792 5794 5795 5797 5798 5799 5800 5802 5803 5804 5805 5807 5808 5809 5810 5812 5813 5815 5816 5817 5818 5820 5821 5821 5822 5823
5758 5759 5760 5762 5763 5764 5766 5767 5769 5771 5772 5774 5776 5777 5779 5781 5783 5784 5786 5787 5789 5790 5792 5793 5794 5795 5796 5798 5799 5800 5802 5803 5804 5806 5808 5809 5810 5812 5813 5814 5815 5816 5817
5747 5748 5750 5751 5753 5754 5756 5757 5759 5761 5763 5765 5767 5768 5770 5772 5774 5775 5777 5779 5780 5782 5783 5784 5786 5787 5788 5790 5791 5792 5793 5795 5796 5798 5800 5801 5803 5804 5805 5807 5808 5809 5811
5736 5737 5739 5740 5742 5743 5745 5747 5748 5750 5752 5754 5757 5759 5760 5762 5764 5766 5768 5769 5771 5772 5774 5775 5777 5778 5779 5781 5782 5783 5785 5786 5787 5789 5791 5793 5794 5796 5797 5798 5800 5801 5803
5724 5726 5727 5729 5731 5732 5734 5736 5737 5739 5741 5743 5746 5748 5750 5752 5754 5755 5758 5759 5761 5762 5764 5765 5767 5768 5769 5771 5773 5774 5775 5777 5778 5780 5781 5783 5785 5787 5788 5790 5791 5793 5795
5712 5713 5715 5717 5719 5721 5723 5725 5726 5728 5730 5732 5734 5737 5739 5741 5743 5745 5747 5749 5750 5752 5753 5755 5756 5758 5759 5760 5762 5764 5765 5766 5768 5769 5771 5773 5774 5776 5778 5780 5782 5784 5786
5700 5701 5703 5705 5707 5709 5711 5713 5715 5716 5718 5720 5722 5725 5727 5730 5732 5734 5736 5737 5739 5741 5742 5744 5745 5747 5748 5749 5751 5753 5754 5755 5757 5758 5760 5761 5763 5765 5767 5769 5771 5774 5776
5687 5688 5690 5692 5694 5696 5698 5700 5702 5704 5706 5708 5710 5712 5715 5717 5720 5722 5723 5725 5727 5729 5730 5731 5733 5734 5736 5737 5739 5741 5742 5743 5745 5746 5747 5749 5751 5753 5755 5758 5760 5763 5765
5674 5676 5677 5679 5680 5682 5685 5687 5689 5691 5693 5695 5697 5699 5702 5705 5707 5709 5711 5713 5714 5716 5717 5719 5720 5721 5722 5723 5725 5727 5729 5732 5732 5734 5735 5736 5739 5741 5743 5745 5748 5751 5753
5661 5663 5664 5665 5667 5669 5671 5673 5675 5677 5679 5681 5683 5686 5689 5691 5693 5695 5698 5699 5701 5703 5704 5705 5707 5708 5709 5709 5710 5712 5714 5717 5719 5721 5721 5723 5725 5727 5729 5732 5734 5737 5740
5649 5650 5651 5652 5654 5656 5658 5660 5662 5664 5666 5668 5670 5672 5675 5677 5679 5682 5684 5686 5687 5689 5690 5691 5693 5694 5695 5696 5696 5697 5699 5701 5703 5706 5708 5709 5710 5713 5715 5718 5720 5723 5726
5636 5637 5638 5640 5641 5643 5645 5647 5649 5651 5653 5655 5657 5658 5661 5663 5665 5667 5669 5671 5673 5675 5676 5678 5679 5680 5680 5681 5682 5683 5684 5685 5687 5690 5693 5695 5696 5697 5700 5703 5705 5708 5711
5624 5625 5626 5627 5628 5630 5632 5633 5635 5638 5640 5641 5643 5645 5646 5648 5651 5652 5655 5656 5658 5660 5662 5663 5664 5665 5666 5667 5668 5668 5669 5671 5673 5674 5677 5679 5681 5682 5684 5687 5690 5692 5696